TTW322 VMMC-RCKH

Flight info

Callsign TTW322
Flight time 1h 6m
Altitude 35000
Route CONGA DCT ENVAR M750 DADON G581 PORCH
Aircraft A320/M-SDE3FGHIRWY/LB1

Departure

Time 2026-04-22 07:05
Airport Macau International Airport (VMMC)

Arrival

Time 2026-04-22 08:12
Airport Kaohsiung International Airport (RCKH)
Time Latitude Longitude Altitude Speed Heading
2026-04-22 07:05 22.14151 113.63743 3567 ft 254 kts 178°
2026-04-22 07:05 22.12391 113.63944 3811 ft 255 kts 178°
2026-04-22 07:06 22.10613 113.64146 3966 ft 258 kts 178°
2026-04-22 07:06 22.08833 113.64350 4006 ft 258 kts 178°
2026-04-22 07:06 22.07049 113.64552 4006 ft 257 kts 178°
2026-04-22 07:06 22.05272 113.64754 4004 ft 258 kts 178°
2026-04-22 07:07 22.03482 113.64956 4007 ft 258 kts 178°
2026-04-22 07:07 22.01700 113.65156 4009 ft 258 kts 178°
2026-04-22 07:07 21.99912 113.65360 4004 ft 258 kts 178°
2026-04-22 07:07 21.98131 113.65575 4008 ft 258 kts 174°
2026-04-22 07:08 21.96381 113.66107 4168 ft 267 kts 165°
2026-04-22 07:08 21.94612 113.66753 5109 ft 268 kts 166°
2026-04-22 07:08 21.92834 113.67393 5974 ft 273 kts 166°
2026-04-22 07:08 21.91017 113.68043 6740 ft 278 kts 166°
2026-04-22 07:09 21.89166 113.68704 7501 ft 283 kts 166°
2026-04-22 07:09 21.87278 113.69378 8254 ft 287 kts 166°
2026-04-22 07:09 21.85363 113.70067 9017 ft 292 kts 166°
2026-04-22 07:09 21.83421 113.70768 9759 ft 297 kts 166°
2026-04-22 07:10 21.81433 113.71485 10256 ft 311 kts 166°
2026-04-22 07:10 21.79309 113.72242 10465 ft 332 kts 165°
2026-04-22 07:10 21.77075 113.73041 10956 ft 341 kts 165°
2026-04-22 07:10 21.74803 113.73859 11580 ft 346 kts 165°
2026-04-22 07:11 21.72506 113.74688 12227 ft 350 kts 165°
2026-04-22 07:11 21.70183 113.75528 12867 ft 354 kts 165°
2026-04-22 07:11 21.67837 113.76374 13499 ft 358 kts 165°
2026-04-22 07:11 21.65459 113.77232 14064 ft 362 kts 165°
2026-04-22 07:12 21.63092 113.78206 14594 ft 369 kts 155°
2026-04-22 07:12 21.60978 113.79806 15120 ft 377 kts 138°
2026-04-22 07:12 21.59342 113.82036 15644 ft 384 kts 120°
2026-04-22 07:12 21.58377 113.84673 16161 ft 389 kts 103°
2026-04-22 07:13 21.58097 113.87612 16690 ft 392 kts 92°
2026-04-22 07:13 21.58002 113.90555 17212 ft 395 kts 92°
2026-04-22 07:13 21.57907 113.93518 17746 ft 398 kts 92°
2026-04-22 07:13 21.57807 113.96500 18238 ft 401 kts 92°
2026-04-22 07:14 21.57703 113.99510 18677 ft 404 kts 92°
2026-04-22 07:14 21.57595 114.02502 19117 ft 407 kts 92°
2026-04-22 07:14 21.57484 114.05524 19568 ft 409 kts 92°
2026-04-22 07:14 21.57368 114.08613 20041 ft 411 kts 92°
2026-04-22 07:15 21.57251 114.11693 20489 ft 414 kts 92°
2026-04-22 07:15 21.57133 114.14790 20931 ft 417 kts 92°
2026-04-22 07:15 21.57017 114.17910 21375 ft 419 kts 92°
2026-04-22 07:15 21.56903 114.21037 21809 ft 421 kts 92°
2026-04-22 07:16 21.56787 114.24200 22243 ft 424 kts 92°
2026-04-22 07:16 21.56670 114.27374 22681 ft 426 kts 92°
2026-04-22 07:16 21.56553 114.30562 23117 ft 429 kts 92°
2026-04-22 07:16 21.56432 114.33777 23517 ft 432 kts 92°
2026-04-22 07:17 21.56309 114.37008 23867 ft 434 kts 92°
2026-04-22 07:17 21.56187 114.40255 24211 ft 436 kts 92°
2026-04-22 07:17 21.56063 114.43520 24552 ft 439 kts 92°
2026-04-22 07:17 21.55938 114.46805 24896 ft 441 kts 92°
2026-04-22 07:18 21.55811 114.50106 25233 ft 444 kts 92°
2026-04-22 07:18 21.55681 114.53426 25564 ft 446 kts 92°
2026-04-22 07:18 21.55550 114.56750 25895 ft 449 kts 92°
2026-04-22 07:18 21.55418 114.60110 26225 ft 451 kts 92°
2026-04-22 07:19 21.55288 114.63476 26552 ft 454 kts 92°
2026-04-22 07:19 21.55155 114.66889 26875 ft 456 kts 92°
2026-04-22 07:19 21.55021 114.70301 27188 ft 458 kts 92°
2026-04-22 07:19 21.54882 114.73732 27507 ft 461 kts 92°
2026-04-22 07:20 21.54744 114.77177 27819 ft 463 kts 92°
2026-04-22 07:20 21.54604 114.80647 28133 ft 465 kts 92°
2026-04-22 07:20 21.54462 114.84121 28454 ft 468 kts 92°
2026-04-22 07:20 21.54316 114.87620 28769 ft 470 kts 92°
2026-04-22 07:21 21.54169 114.91144 29092 ft 473 kts 92°
2026-04-22 07:21 21.54024 114.94675 29419 ft 475 kts 92°
2026-04-22 07:21 21.53877 114.98225 29748 ft 478 kts 92°
2026-04-22 07:21 21.53729 115.01806 30042 ft 480 kts 92°
2026-04-22 07:22 21.53578 115.05403 30315 ft 483 kts 91°
2026-04-22 07:22 21.53425 115.09011 30581 ft 485 kts 91°
2026-04-22 07:22 21.53276 115.12639 30844 ft 487 kts 90°
2026-04-22 07:22 21.53427 115.16270 31104 ft 487 kts 81°
2026-04-22 07:23 21.53888 115.19866 31457 ft 487 kts 80°
2026-04-22 07:23 21.54354 115.23462 31861 ft 486 kts 79°
2026-04-22 07:23 21.54815 115.27056 32271 ft 485 kts 79°
2026-04-22 07:23 21.55272 115.30639 32682 ft 484 kts 79°
2026-04-22 07:24 21.55719 115.34173 33084 ft 483 kts 79°
2026-04-22 07:24 21.56172 115.37741 33505 ft 483 kts 79°
2026-04-22 07:24 21.56627 115.41314 33919 ft 482 kts 79°
2026-04-22 07:24 21.57077 115.44866 34292 ft 480 kts 79°
2026-04-22 07:25 21.57525 115.48421 34662 ft 479 kts 79°
2026-04-22 07:25 21.57971 115.51975 34819 ft 478 kts 79°
2026-04-22 07:25 21.58413 115.55501 34859 ft 474 kts 79°
2026-04-22 07:26 21.59144 115.61355 34861 ft 471 kts 79°
2026-04-22 07:26 21.60016 115.68322 34859 ft 470 kts 79°
2026-04-22 07:27 21.60886 115.75288 34859 ft 470 kts 79°
2026-04-22 07:27 21.61754 115.82245 34861 ft 470 kts 79°
2026-04-22 07:28 21.63043 115.92690 34867 ft 470 kts 79°
2026-04-22 07:28 21.63900 115.99644 34869 ft 469 kts 79°
2026-04-22 07:29 21.64757 116.06595 34874 ft 469 kts 79°
2026-04-22 07:29 21.65613 116.13549 34875 ft 469 kts 79°
2026-04-22 07:30 21.66446 116.20458 34875 ft 469 kts 80°
2026-04-22 07:30 21.67287 116.27415 34878 ft 469 kts 79°
2026-04-22 07:31 21.68129 116.34359 34876 ft 468 kts 80°
2026-04-22 07:31 21.68970 116.41302 34874 ft 468 kts 80°
2026-04-22 07:32 21.69807 116.48246 34874 ft 468 kts 80°
2026-04-22 07:32 21.70642 116.55189 34874 ft 468 kts 80°
2026-04-22 07:33 21.71468 116.62129 34873 ft 468 kts 80°
2026-04-22 07:33 21.72288 116.69057 34873 ft 468 kts 80°
2026-04-22 07:34 21.73111 116.76000 34868 ft 468 kts 79°
2026-04-22 07:34 21.74900 116.82650 34867 ft 461 kts 65°
2026-04-22 07:35 21.77247 116.89075 34865 ft 462 kts 65°
2026-04-22 07:35 21.79575 116.95507 34865 ft 462 kts 65°
2026-04-22 07:36 21.81903 117.01952 34866 ft 462 kts 65°
2026-04-22 07:36 21.84239 117.08411 34865 ft 463 kts 65°
2026-04-22 07:37 21.86567 117.14863 34865 ft 463 kts 65°
2026-04-22 07:37 21.88896 117.21333 34865 ft 463 kts 65°
2026-04-22 07:38 21.91217 117.27803 34862 ft 463 kts 66°
2026-04-22 07:38 21.93532 117.34282 34870 ft 464 kts 66°
2026-04-22 07:39 21.95843 117.40725 34869 ft 464 kts 66°
2026-04-22 07:39 21.98179 117.47238 34878 ft 464 kts 66°
2026-04-22 07:40 22.01092 117.53382 34871 ft 459 kts 55°
2026-04-22 07:40 22.04426 117.59231 34877 ft 460 kts 55°
2026-04-22 07:41 22.07771 117.65126 34874 ft 460 kts 55°
2026-04-22 07:41 22.11091 117.70988 34870 ft 460 kts 55°
2026-04-22 07:42 22.14423 117.76875 34875 ft 461 kts 55°
2026-04-22 07:42 22.17763 117.82785 34865 ft 461 kts 55°
2026-04-22 07:43 22.21104 117.88697 34861 ft 461 kts 55°
2026-04-22 07:43 22.24464 117.94649 34864 ft 462 kts 57°
2026-04-22 07:44 22.25829 117.97758 34865 ft 466 kts 68°
2026-04-22 07:44 22.26695 118.01140 34864 ft 470 kts 78°
2026-04-22 07:44 22.27007 118.04702 34850 ft 472 kts 89°
2026-04-22 07:44 22.26773 118.08199 34849 ft 474 kts 95°
2026-04-22 07:45 22.25994 118.15265 34860 ft 474 kts 96°
2026-04-22 07:45 22.25177 118.22338 34851 ft 475 kts 96°
2026-04-22 07:46 22.24351 118.29416 34861 ft 476 kts 96°
2026-04-22 07:46 22.23529 118.36508 34866 ft 476 kts 96°
2026-04-22 07:47 22.22706 118.43605 34852 ft 477 kts 96°
2026-04-22 07:47 22.21876 118.50713 34497 ft 475 kts 96°
2026-04-22 07:48 22.21464 118.54215 34269 ft 466 kts 96°
2026-04-22 07:48 22.21059 118.57632 34038 ft 452 kts 96°
2026-04-22 07:48 22.20663 118.60950 33807 ft 439 kts 97°
2026-04-22 07:48 22.20276 118.64192 33552 ft 433 kts 96°
2026-04-22 07:49 22.19897 118.67403 33295 ft 430 kts 96°
2026-04-22 07:49 22.19523 118.70603 33043 ft 428 kts 96°
2026-04-22 07:49 22.19151 118.73788 32795 ft 428 kts 96°
2026-04-22 07:49 22.18778 118.76967 32549 ft 426 kts 96°
2026-04-22 07:50 22.18408 118.80121 32303 ft 424 kts 97°
2026-04-22 07:50 22.18034 118.83269 32061 ft 423 kts 97°
2026-04-22 07:50 22.17660 118.86407 31828 ft 421 kts 97°
2026-04-22 07:50 22.17284 118.89534 31582 ft 420 kts 97°
2026-04-22 07:51 22.16909 118.92658 31339 ft 418 kts 97°
2026-04-22 07:51 22.16531 118.95791 30789 ft 424 kts 97°
2026-04-22 07:51 22.16149 118.98978 30375 ft 434 kts 97°
2026-04-22 07:51 22.15756 119.02231 29865 ft 438 kts 97°
2026-04-22 07:52 22.15362 119.05483 29274 ft 439 kts 97°
2026-04-22 07:52 22.14963 119.08739 28748 ft 438 kts 97°
2026-04-22 07:52 22.14560 119.12022 28205 ft 436 kts 97°
2026-04-22 07:52 22.14170 119.15230 27684 ft 429 kts 97°
2026-04-22 07:53 22.13787 119.18399 27162 ft 423 kts 97°
2026-04-22 07:53 22.13411 119.21533 26645 ft 418 kts 97°
2026-04-22 07:53 22.13039 119.24610 26136 ft 413 kts 97°
2026-04-22 07:53 22.12670 119.27655 25639 ft 408 kts 98°
2026-04-22 07:54 22.12299 119.30682 25144 ft 405 kts 98°
2026-04-22 07:54 22.11930 119.33687 24650 ft 401 kts 98°
2026-04-22 07:54 22.11564 119.36661 24161 ft 398 kts 98°
2026-04-22 07:54 22.11204 119.39600 23679 ft 395 kts 98°
2026-04-22 07:55 22.10845 119.42534 23156 ft 392 kts 98°
2026-04-22 07:55 22.10489 119.45435 22661 ft 390 kts 98°
2026-04-22 07:55 22.10136 119.48328 22193 ft 390 kts 98°
2026-04-22 07:55 22.09783 119.51224 21714 ft 389 kts 98°
2026-04-22 07:56 22.09427 119.54114 21239 ft 389 kts 98°
2026-04-22 07:56 22.09069 119.57002 20767 ft 388 kts 98°
2026-04-22 07:56 22.08712 119.59858 20285 ft 380 kts 98°
2026-04-22 07:56 22.08362 119.62646 19834 ft 371 kts 98°
2026-04-22 07:57 22.08021 119.65388 19385 ft 367 kts 98°
2026-04-22 07:57 22.07685 119.68102 18930 ft 364 kts 98°
2026-04-22 07:57 22.07349 119.70796 18471 ft 361 kts 98°
2026-04-22 07:57 22.07016 119.73463 17991 ft 358 kts 98°
2026-04-22 07:58 22.06686 119.76108 17507 ft 355 kts 98°
2026-04-22 07:58 22.06356 119.78732 17067 ft 353 kts 98°
2026-04-22 07:58 22.06029 119.81345 16618 ft 351 kts 98°
2026-04-22 07:58 22.05704 119.83940 16177 ft 347 kts 98°
2026-04-22 07:59 22.05379 119.86506 15740 ft 345 kts 98°
2026-04-22 07:59 22.05053 119.89058 15294 ft 342 kts 98°
2026-04-22 07:59 22.04732 119.91587 14870 ft 340 kts 97°
2026-04-22 07:59 22.04714 119.94106 14489 ft 334 kts 78°
2026-04-22 08:00 22.05546 119.96405 14094 ft 328 kts 53°
2026-04-22 08:00 22.07094 119.98158 13732 ft 321 kts 31°
2026-04-22 08:00 22.09076 119.99135 13279 ft 311 kts
2026-04-22 08:00 22.11197 119.99580 12882 ft 310 kts
2026-04-22 08:01 22.13309 120.00004 12511 ft 309 kts
2026-04-22 08:01 22.15388 120.00424 12138 ft 307 kts
2026-04-22 08:01 22.17514 120.00856 11767 ft 306 kts
2026-04-22 08:01 22.19601 120.01281 11407 ft 305 kts
2026-04-22 08:02 22.21681 120.01705 11052 ft 304 kts
2026-04-22 08:02 22.23724 120.02121 10711 ft 302 kts
2026-04-22 08:02 22.25787 120.02542 10351 ft 301 kts
2026-04-22 08:02 22.27841 120.02962 10005 ft 300 kts
2026-04-22 08:03 22.29926 120.03390 9644 ft 299 kts
2026-04-22 08:03 22.31969 120.03810 9152 ft 298 kts
2026-04-22 08:03 22.33997 120.04226 8655 ft 296 kts
2026-04-22 08:03 22.36016 120.04638 8170 ft 294 kts
2026-04-22 08:04 22.37998 120.05043 7694 ft 293 kts
2026-04-22 08:04 22.39993 120.05451 7218 ft 292 kts
2026-04-22 08:04 22.41982 120.05860 6748 ft 291 kts
2026-04-22 08:04 22.43969 120.06268 6273 ft 290 kts
2026-04-22 08:05 22.45947 120.06673 5792 ft 288 kts
2026-04-22 08:05 22.47911 120.07077 5304 ft 287 kts
2026-04-22 08:05 22.49869 120.07480 4822 ft 286 kts
2026-04-22 08:05 22.51814 120.07880 4338 ft 285 kts
2026-04-22 08:06 22.53760 120.08280 3934 ft 283 kts
2026-04-22 08:06 22.55690 120.08680 3690 ft 283 kts
2026-04-22 08:06 22.57610 120.09168 3437 ft 285 kts 22°
2026-04-22 08:06 22.59202 120.10366 3199 ft 272 kts 52°
2026-04-22 08:07 22.60011 120.12090 3040 ft 247 kts 83°
2026-04-22 08:07 22.60088 120.13839 3001 ft 219 kts 98°
2026-04-22 08:07 22.59841 120.15385 3011 ft 203 kts 107°
2026-04-22 08:07 22.59552 120.16855 3028 ft 197 kts 106°
2026-04-22 08:08 22.59270 120.18293 3012 ft 194 kts 107°
2026-04-22 08:08 22.58987 120.19720 2828 ft 195 kts 107°
2026-04-22 08:08 22.58706 120.21142 2535 ft 190 kts 107°
2026-04-22 08:08 22.58441 120.22501 2200 ft 180 kts 107°
2026-04-22 08:09 22.58269 120.23370 1882 ft 183 kts 108°
2026-04-22 08:09 22.58066 120.24727 1590 ft 179 kts 101°
2026-04-22 08:09 22.57996 120.26028 1380 ft 165 kts 97°
2026-04-22 08:09 22.57952 120.27216 1175 ft 154 kts 97°
2026-04-22 08:10 22.57915 120.28344 993 ft 145 kts 98°
2026-04-22 08:10 22.57880 120.29431 827 ft 145 kts 101°
2026-04-22 08:10 22.57845 120.30522 645 ft 144 kts 100°
2026-04-22 08:10 22.57806 120.31597 467 ft 143 kts 100°
2026-04-22 08:11 22.57791 120.32658 207 ft 142 kts 98°
2026-04-22 08:11 22.57753 120.33717 62 ft 141 kts 98°
2026-04-22 08:11 22.57710 120.34667 39 ft 104 kts 92°
2026-04-22 08:11 22.57698 120.35268 38 ft 55 kts 91°
2026-04-22 08:12 22.57691 120.35519 37 ft 25 kts 92°
2026-04-22 08:12 22.57688 120.35688 38 ft 16 kts 91°
2026-04-22 08:12 22.57684 120.35816 39 ft 18 kts 92°
2026-04-22 08:12 22.57628 120.35914 39 ft 16 kts 167°
2026-04-22 08:13 22.57565 120.35915 39 ft 7 kts 180°
2026-04-22 08:13 22.57520 120.35895 38 ft 8 kts 246°
2026-04-22 08:13 22.57513 120.35823 38 ft 11 kts 271°
2026-04-22 08:13 22.57517 120.35731 38 ft 14 kts 272°
2026-04-22 08:14 22.57521 120.35620 38 ft 16 kts 272°
2026-04-22 08:14 22.57525 120.35490 38 ft 19 kts 272°
2026-04-22 08:14 22.57529 120.35340 38 ft 21 kts 271°
2026-04-22 08:14 22.57532 120.35172 38 ft 24 kts 270°
2026-04-22 08:15 22.57541 120.34992 38 ft 26 kts 272°
2026-04-22 08:15 22.57543 120.34933 38 ft 2 kts 272°
2026-04-22 08:15 22.57543 120.34905 38 ft 6 kts 270°
2026-04-22 08:15 22.57544 120.34852 38 ft 8 kts 271°
2026-04-22 08:16 22.57546 120.34780 38 ft 11 kts 272°
2026-04-22 08:16 22.57549 120.34691 38 ft 13 kts 272°
2026-04-22 08:16 22.57552 120.34585 39 ft 15 kts 272°
2026-04-22 08:16 22.57557 120.34461 39 ft 18 kts 271°
2026-04-22 08:17 22.57561 120.34316 39 ft 21 kts 272°
2026-04-22 08:17 22.57565 120.34187 39 ft 0 kts 271°
2026-04-22 08:17 22.57565 120.34185 39 ft 1 kts 272°
2026-04-22 08:17 22.57566 120.34158 39 ft 6 kts 272°
2026-04-22 08:18 22.57546 120.34124 39 ft 7 kts 197°
2026-04-22 08:18 22.57484 120.34121 38 ft 11 kts 181°
2026-04-22 08:18 22.57413 120.34091 38 ft 12 kts 244°
2026-04-22 08:18 22.57343 120.34052 38 ft 3 kts 181°
2026-04-22 08:19 22.57308 120.34051 38 ft 7 kts 181°
2026-04-22 08:19 22.57258 120.34052 38 ft 0 kts 166°
2026-04-22 08:19 22.57258 120.34061 38 ft 3 kts 82°
2026-04-22 08:20 22.57267 120.34095 38 ft 6 kts 89°
2026-04-22 08:20 22.57267 120.34125 38 ft 0 kts 91°
2026-04-22 08:20 22.57267 120.34129 38 ft 0 kts 91°
2026-04-22 08:29 22.57267 120.34128 38 ft 0 kts 91°
2026-04-22 09:05 22.57267 120.34127 38 ft 0 kts 91°